Location: Hormuz
(27.0871°N, 56.4580°E)
Time: 17:38:40
(UTC+04:30)

Envisat - Pass Details

Date: 23 June 2021
Orbit: 764 x 766 km, 98.2° (Epoch: 26 July)

Event Time Altitude Azimuth Distance (km) Brightness Sun altitude
Rises 05:08:54 0° 29° (NNE) 3,229 7.4 -9.0°
Reaches altitude 10° 05:11:37 10° 43° (NE) 2,300 7.0 -8.5°
Maximum altitude 05:15:42 24° 97° (E) 1,530 5.3 -7.7°
Drops below altitude 10° 05:19:45 10° 151° (SSE) 2,290 5.5 -6.9°
Sets 05:22:26 0° 164° (SSE) 3,212 6.1 -6.4°
